Year,Month,Day,Hour,Minute,Value (Times are PST for temperature in C)
2009,06,29,00,00,12.60
2009,06,29,00,01,12.60
2009,06,29,00,02,12.60
2009,06,29,00,03,12.60
2009,06,29,00,04,12.60
2009,06,29,00,05,12.60
2009,06,29,00,06,12.60
2009,06,29,00,07,12.50
2009,06,29,00,08,12.50
2009,06,29,00,09,12.50
2009,06,29,00,10,12.50
2009,06,29,00,11,12.50
2009,06,29,00,12,12.50
2009,06,29,00,13,12.50
2009,06,29,00,14,12.50
2009,06,29,00,15,12.50
2009,06,29,00,16,12.50
2009,06,29,00,17,12.50
2009,06,29,00,18,12.50
2009,06,29,00,19,12.50
2009,06,29,00,20,12.50
2009,06,29,00,21,12.50
2009,06,29,00,22,12.50
2009,06,29,00,23,12.50
2009,06,29,00,24,12.50
2009,06,29,00,25,12.50
2009,06,29,00,26,12.50
2009,06,29,00,27,12.50
2009,06,29,00,28,12.50
2009,06,29,00,29,12.50
2009,06,29,00,30,12.50
2009,06,29,00,31,12.50
2009,06,29,00,32,12.50
2009,06,29,00,33,12.50
2009,06,29,00,34,12.40
2009,06,29,00,35,12.40
2009,06,29,00,36,12.40
2009,06,29,00,37,12.40
2009,06,29,00,38,12.40
2009,06,29,00,39,12.40
2009,06,29,00,40,12.40
2009,06,29,00,41,12.40
2009,06,29,00,42,12.40
2009,06,29,00,43,12.40
2009,06,29,00,44,12.30
2009,06,29,00,45,12.30
2009,06,29,00,46,12.30
2009,06,29,00,47,12.30
2009,06,29,00,48,12.30
2009,06,29,00,49,12.30
2009,06,29,00,50,12.30
2009,06,29,00,51,12.30
2009,06,29,00,52,12.30
2009,06,29,00,53,12.30
2009,06,29,00,54,12.30
2009,06,29,00,55,12.30
2009,06,29,00,56,12.30
2009,06,29,00,57,12.20
2009,06,29,00,58,12.20
2009,06,29,00,59,12.20
2009,06,29,01,00,12.20
2009,06,29,01,01,12.20
2009,06,29,01,02,12.10
2009,06,29,01,03,12.10
2009,06,29,01,04,12.10
2009,06,29,01,05,12.10
2009,06,29,01,06,12.10
2009,06,29,01,07,12.10
2009,06,29,01,08,12.10
2009,06,29,01,09,12.10
2009,06,29,01,10,12.10
2009,06,29,01,11,12.10
2009,06,29,01,12,12.10
2009,06,29,01,13,12.10
2009,06,29,01,14,12.10
2009,06,29,01,15,12.10
2009,06,29,01,16,12.10
2009,06,29,01,17,12.10
2009,06,29,01,18,12.10
2009,06,29,01,19,12.00
2009,06,29,01,20,12.00
2009,06,29,01,21,12.00
2009,06,29,01,22,12.00
2009,06,29,01,23,12.00
2009,06,29,01,24,12.00
2009,06,29,01,25,12.00
2009,06,29,01,26,12.00
2009,06,29,01,27,11.90
2009,06,29,01,28,11.90
2009,06,29,01,29,11.90
2009,06,29,01,30,11.90
2009,06,29,01,31,11.90
2009,06,29,01,32,11.90
2009,06,29,01,33,11.90
2009,06,29,01,34,11.80
2009,06,29,01,35,11.80
2009,06,29,01,36,11.80
2009,06,29,01,37,11.80
2009,06,29,01,38,11.80
2009,06,29,01,39,11.80
2009,06,29,01,40,11.80
2009,06,29,01,41,11.80
2009,06,29,01,42,11.80
2009,06,29,01,43,11.70
2009,06,29,01,44,11.70
2009,06,29,01,45,11.70
2009,06,29,01,46,11.60
2009,06,29,01,47,11.60
2009,06,29,01,48,11.60
2009,06,29,01,49,11.60
2009,06,29,01,50,11.50
2009,06,29,01,51,11.40
2009,06,29,01,52,11.40
2009,06,29,01,53,11.40
2009,06,29,01,54,11.40
2009,06,29,01,55,11.40
2009,06,29,01,56,11.40
2009,06,29,01,57,11.40
2009,06,29,01,58,11.30
2009,06,29,01,59,11.30
2009,06,29,02,00,11.30
2009,06,29,02,01,11.30
2009,06,29,02,02,11.30
2009,06,29,02,03,11.20
2009,06,29,02,04,11.20
2009,06,29,02,05,11.20
2009,06,29,02,06,11.20
2009,06,29,02,07,11.20
2009,06,29,02,08,11.20
2009,06,29,02,09,11.20
2009,06,29,02,10,11.20
2009,06,29,02,11,11.20
2009,06,29,02,12,11.20
2009,06,29,02,13,11.20
2009,06,29,02,14,11.20
2009,06,29,02,15,11.30
2009,06,29,02,16,11.30
2009,06,29,02,17,11.30
2009,06,29,02,18,11.30
2009,06,29,02,19,11.30
2009,06,29,02,20,11.30
2009,06,29,02,21,11.40
2009,06,29,02,22,11.40
2009,06,29,02,23,11.40
2009,06,29,02,24,11.40
2009,06,29,02,25,11.40
2009,06,29,02,26,11.30
2009,06,29,02,27,11.30
2009,06,29,02,28,11.30
2009,06,29,02,29,11.30
2009,06,29,02,30,11.30
2009,06,29,02,31,11.20
2009,06,29,02,32,11.20
2009,06,29,02,33,11.20
2009,06,29,02,34,11.10
2009,06,29,02,35,11.10
2009,06,29,02,36,11.10
2009,06,29,02,37,11.10
2009,06,29,02,38,11.00
2009,06,29,02,39,10.90
2009,06,29,02,40,10.90
2009,06,29,02,41,10.90
2009,06,29,02,42,10.90
2009,06,29,02,43,10.90
2009,06,29,02,44,10.90
2009,06,29,02,45,10.90
2009,06,29,02,46,10.90
2009,06,29,02,47,10.90
2009,06,29,02,48,10.90
2009,06,29,02,49,10.90
2009,06,29,02,50,10.90
2009,06,29,02,51,10.90
2009,06,29,02,52,10.80
2009,06,29,02,53,10.80
2009,06,29,02,54,10.80
2009,06,29,02,55,10.80
2009,06,29,02,56,10.80
2009,06,29,02,57,10.80
2009,06,29,02,58,10.80
2009,06,29,02,59,10.80
2009,06,29,03,00,10.80
2009,06,29,03,01,10.70
2009,06,29,03,02,10.70
2009,06,29,03,03,10.70
2009,06,29,03,04,10.70
2009,06,29,03,05,10.70
2009,06,29,03,06,10.70
2009,06,29,03,07,10.70
2009,06,29,03,08,10.70
2009,06,29,03,09,10.70
2009,06,29,03,10,10.70
2009,06,29,03,11,10.70
2009,06,29,03,12,10.70
2009,06,29,03,13,10.70
2009,06,29,03,14,10.70
2009,06,29,03,15,10.70
2009,06,29,03,16,10.70
2009,06,29,03,17,10.70
2009,06,29,03,18,10.70
2009,06,29,03,19,10.70
2009,06,29,03,20,10.70
2009,06,29,03,21,10.80
2009,06,29,03,22,10.80
2009,06,29,03,23,10.80
2009,06,29,03,24,10.80
2009,06,29,03,25,10.80
2009,06,29,03,26,10.80
2009,06,29,03,27,10.80
2009,06,29,03,28,10.80
2009,06,29,03,29,10.80
2009,06,29,03,30,10.80
2009,06,29,03,31,10.80
2009,06,29,03,32,10.90
2009,06,29,03,33,10.90
2009,06,29,03,34,10.90
2009,06,29,03,35,10.90
2009,06,29,03,36,10.80
2009,06,29,03,37,10.80
2009,06,29,03,38,10.80
2009,06,29,03,39,10.80
2009,06,29,03,40,10.70
2009,06,29,03,41,10.70
2009,06,29,03,42,10.60
2009,06,29,03,43,10.60
2009,06,29,03,44,10.40
2009,06,29,03,45,10.40
2009,06,29,03,46,10.30
2009,06,29,03,47,10.20
2009,06,29,03,48,10.20
2009,06,29,03,49,10.10
2009,06,29,03,50,10.10
2009,06,29,03,51,10.10
2009,06,29,03,52,10.10
2009,06,29,03,53,10.00
2009,06,29,03,54,9.90
2009,06,29,03,55,9.90
2009,06,29,03,56,9.90
2009,06,29,03,57,9.90
2009,06,29,03,58,9.90
2009,06,29,03,59,9.90
2009,06,29,04,00,9.90
2009,06,29,04,01,9.90
2009,06,29,04,02,10.00
2009,06,29,04,03,10.10
2009,06,29,04,04,10.10
2009,06,29,04,05,10.10
2009,06,29,04,06,10.00
2009,06,29,04,07,9.90
2009,06,29,04,08,9.90
2009,06,29,04,09,9.90
2009,06,29,04,10,9.90
2009,06,29,04,11,9.90
2009,06,29,04,12,9.90
2009,06,29,04,13,9.80
2009,06,29,04,14,9.90
2009,06,29,04,15,9.90
2009,06,29,04,16,9.90
2009,06,29,04,17,9.90
2009,06,29,04,18,9.90
2009,06,29,04,19,9.90
2009,06,29,04,20,9.90
2009,06,29,04,21,10.00
2009,06,29,04,22,10.10
2009,06,29,04,23,10.10
2009,06,29,04,24,10.10
2009,06,29,04,25,10.10
2009,06,29,04,26,9.90
2009,06,29,04,27,9.90
2009,06,29,04,28,9.90
2009,06,29,04,29,9.80
2009,06,29,04,30,9.80
2009,06,29,04,31,9.80
2009,06,29,04,32,9.70
2009,06,29,04,33,9.70
2009,06,29,04,34,9.70
2009,06,29,04,35,9.70
2009,06,29,04,36,9.70
2009,06,29,04,37,9.70
2009,06,29,04,38,9.70
2009,06,29,04,39,9.70
2009,06,29,04,40,9.70
2009,06,29,04,41,9.70
2009,06,29,04,42,9.70
2009,06,29,04,43,9.70
2009,06,29,04,44,9.70
2009,06,29,04,45,9.80
2009,06,29,04,46,9.80
2009,06,29,04,47,9.80
2009,06,29,04,48,9.90
2009,06,29,04,49,9.90
2009,06,29,04,50,9.90
2009,06,29,04,51,9.90
2009,06,29,04,52,9.90
2009,06,29,04,53,9.90
2009,06,29,04,54,9.90
2009,06,29,04,55,9.90
2009,06,29,04,56,9.80
2009,06,29,04,57,9.80
2009,06,29,04,58,9.80
2009,06,29,04,59,9.70
2009,06,29,05,00,9.70
2009,06,29,05,01,9.70
2009,06,29,05,02,9.70
2009,06,29,05,03,9.70
2009,06,29,05,04,9.70
2009,06,29,05,05,9.60
2009,06,29,05,06,9.60
2009,06,29,05,07,9.60
2009,06,29,05,08,9.60
2009,06,29,05,09,9.50
2009,06,29,05,10,9.50
2009,06,29,05,11,9.50
2009,06,29,05,12,9.50
2009,06,29,05,13,9.50
2009,06,29,05,14,9.40
2009,06,29,05,15,9.40
2009,06,29,05,16,9.40
2009,06,29,05,17,9.40
2009,06,29,05,18,9.40
2009,06,29,05,19,9.40
2009,06,29,05,20,9.40
2009,06,29,05,21,9.40
2009,06,29,05,22,9.40
2009,06,29,05,23,9.30
2009,06,29,05,24,9.30
2009,06,29,05,25,9.30
2009,06,29,05,26,9.30
2009,06,29,05,27,9.30
2009,06,29,05,28,9.30
2009,06,29,05,29,9.30
2009,06,29,05,30,9.20
2009,06,29,05,31,9.20
2009,06,29,05,32,9.20
2009,06,29,05,33,9.20
2009,06,29,05,34,9.20
2009,06,29,05,35,9.20
2009,06,29,05,36,9.20
2009,06,29,05,37,9.20
2009,06,29,05,38,9.20
2009,06,29,05,39,9.20
2009,06,29,05,40,9.20
2009,06,29,05,41,9.20
2009,06,29,05,42,9.20
2009,06,29,05,43,9.20
2009,06,29,05,44,9.20
2009,06,29,05,45,9.20
2009,06,29,05,46,9.20
2009,06,29,05,47,9.20
2009,06,29,05,48,9.20
2009,06,29,05,49,9.20
2009,06,29,05,50,9.20
2009,06,29,05,51,9.20
2009,06,29,05,52,9.20
2009,06,29,05,53,9.20
2009,06,29,05,54,9.20
2009,06,29,05,55,9.20
2009,06,29,05,56,9.20
2009,06,29,05,57,9.20
2009,06,29,05,58,9.20
2009,06,29,05,59,9.20
2009,06,29,06,00,9.20
2009,06,29,06,01,9.20
2009,06,29,06,02,9.20
2009,06,29,06,03,9.20
2009,06,29,06,04,9.20
2009,06,29,06,05,9.20
2009,06,29,06,06,9.30
2009,06,29,06,07,9.30
2009,06,29,06,08,9.30
2009,06,29,06,09,9.40
2009,06,29,06,10,9.40
2009,06,29,06,11,9.40
2009,06,29,06,12,9.40
2009,06,29,06,13,9.40
2009,06,29,06,14,9.40
2009,06,29,06,15,9.40
2009,06,29,06,16,9.40
2009,06,29,06,17,9.50
2009,06,29,06,18,9.50
2009,06,29,06,19,9.50
2009,06,29,06,20,9.50
2009,06,29,06,21,9.50
2009,06,29,06,22,9.50
2009,06,29,06,23,9.50
2009,06,29,06,24,9.50
2009,06,29,06,25,9.50
2009,06,29,06,26,9.50
2009,06,29,06,27,9.50
2009,06,29,06,28,9.50
2009,06,29,06,29,9.50
2009,06,29,06,30,9.50
2009,06,29,06,31,9.60
2009,06,29,06,32,9.60
2009,06,29,06,33,9.70
2009,06,29,06,34,9.70
2009,06,29,06,35,9.70
2009,06,29,06,36,9.70
2009,06,29,06,37,9.70
2009,06,29,06,38,9.70
2009,06,29,06,39,9.70
2009,06,29,06,40,9.80
2009,06,29,06,41,9.80
2009,06,29,06,42,9.80
2009,06,29,06,43,9.80
2009,06,29,06,44,9.80
2009,06,29,06,45,9.80
2009,06,29,06,46,9.80
2009,06,29,06,47,9.80
2009,06,29,06,48,9.80
2009,06,29,06,49,9.80
2009,06,29,06,50,9.80
2009,06,29,06,51,9.90
2009,06,29,06,52,9.90
2009,06,29,06,53,9.90
2009,06,29,06,54,9.90
2009,06,29,06,55,9.90
2009,06,29,06,56,9.90
2009,06,29,06,57,9.90
2009,06,29,06,58,9.90
2009,06,29,06,59,9.90
2009,06,29,07,00,10.00
2009,06,29,07,01,10.10
2009,06,29,07,02,10.10
2009,06,29,07,03,10.10
2009,06,29,07,04,10.10
2009,06,29,07,05,10.10
2009,06,29,07,06,10.10
2009,06,29,07,07,10.10
2009,06,29,07,08,10.20
2009,06,29,07,09,10.20
2009,06,29,07,10,10.20
2009,06,29,07,11,10.30
2009,06,29,07,12,10.30
2009,06,29,07,13,10.30
2009,06,29,07,14,10.40
2009,06,29,07,15,10.40
2009,06,29,07,16,10.40
2009,06,29,07,17,10.60
2009,06,29,07,18,10.60
2009,06,29,07,19,10.60
2009,06,29,07,20,10.60
2009,06,29,07,21,10.70
2009,06,29,07,22,10.70
2009,06,29,07,23,10.80
2009,06,29,07,24,10.80
2009,06,29,07,25,10.90
2009,06,29,07,26,10.90
2009,06,29,07,27,10.90
2009,06,29,07,28,10.90
2009,06,29,07,29,11.00
2009,06,29,07,30,11.10
2009,06,29,07,31,11.10
2009,06,29,07,32,11.10
2009,06,29,07,33,11.10
2009,06,29,07,34,11.20
2009,06,29,07,35,11.20
2009,06,29,07,36,11.30
2009,06,29,07,37,11.30
2009,06,29,07,38,11.30
2009,06,29,07,39,11.40
2009,06,29,07,40,11.40
2009,06,29,07,41,11.40
2009,06,29,07,42,11.40
2009,06,29,07,43,11.40
2009,06,29,07,44,11.50
2009,06,29,07,45,11.60
2009,06,29,07,46,11.60
2009,06,29,07,47,11.60
2009,06,29,07,48,11.60
2009,06,29,07,49,11.60
2009,06,29,07,50,11.70
2009,06,29,07,51,11.70
2009,06,29,07,52,11.80
2009,06,29,07,53,11.80
2009,06,29,07,54,11.80
2009,06,29,07,55,11.90
2009,06,29,07,56,12.00
2009,06,29,07,57,12.00
2009,06,29,07,58,12.10
2009,06,29,07,59,12.10
2009,06,29,08,00,12.20
2009,06,29,08,01,12.20
2009,06,29,08,02,12.30
2009,06,29,08,03,12.30
2009,06,29,08,04,12.30
2009,06,29,08,05,12.40
2009,06,29,08,06,12.50
2009,06,29,08,07,12.60
2009,06,29,08,08,12.60
2009,06,29,08,09,12.70
2009,06,29,08,10,12.80
2009,06,29,08,11,12.80
2009,06,29,08,12,12.80
2009,06,29,08,13,12.90
2009,06,29,08,14,12.90
2009,06,29,08,15,13.00
2009,06,29,08,16,13.00
2009,06,29,08,17,13.10
2009,06,29,08,18,13.10
2009,06,29,08,19,13.20
2009,06,29,08,20,13.20
2009,06,29,08,21,13.30
2009,06,29,08,22,13.30
2009,06,29,08,23,13.40
2009,06,29,08,24,13.40
2009,06,29,08,25,13.40
2009,06,29,08,26,13.50
2009,06,29,08,27,13.60
2009,06,29,08,28,13.60
2009,06,29,08,29,13.70
2009,06,29,08,30,13.70
2009,06,29,08,31,13.70
2009,06,29,08,32,13.70
2009,06,29,08,33,13.80
2009,06,29,08,34,13.80
2009,06,29,08,35,13.80
2009,06,29,08,36,13.90
2009,06,29,08,37,13.90
2009,06,29,08,38,13.90
2009,06,29,08,39,13.90
2009,06,29,08,40,13.90
2009,06,29,08,41,14.00
2009,06,29,08,42,14.00
2009,06,29,08,43,14.00
2009,06,29,08,44,14.00
2009,06,29,08,45,14.00
2009,06,29,08,46,14.00
2009,06,29,08,47,14.00
2009,06,29,08,48,14.00
2009,06,29,08,49,14.10
2009,06,29,08,50,14.10
2009,06,29,08,51,14.20
2009,06,29,08,52,14.20
2009,06,29,08,53,14.20
2009,06,29,08,54,14.20
2009,06,29,08,55,14.20
2009,06,29,08,56,14.20
2009,06,29,08,57,14.30
2009,06,29,08,58,14.30
2009,06,29,08,59,14.30
2009,06,29,09,00,14.30
2009,06,29,09,01,14.30
2009,06,29,09,02,14.40
2009,06,29,09,03,14.40
2009,06,29,09,04,14.40
2009,06,29,09,05,14.40
2009,06,29,09,06,14.40
2009,06,29,09,07,14.40
2009,06,29,09,08,14.50
2009,06,29,09,09,14.50
2009,06,29,09,10,14.50
2009,06,29,09,11,14.60
2009,06,29,09,12,14.70
2009,06,29,09,13,14.80
2009,06,29,09,14,14.80
2009,06,29,09,15,14.80
2009,06,29,09,16,14.80
2009,06,29,09,17,14.80
2009,06,29,09,18,14.80
2009,06,29,09,19,14.80
2009,06,29,09,20,14.90
2009,06,29,09,21,14.90
2009,06,29,09,22,15.00
2009,06,29,09,23,15.00
2009,06,29,09,24,15.00
2009,06,29,09,25,15.00
2009,06,29,09,26,15.00
2009,06,29,09,27,15.10
2009,06,29,09,28,15.20
2009,06,29,09,29,15.20
2009,06,29,09,30,15.30
2009,06,29,09,31,15.30
2009,06,29,09,32,15.30
2009,06,29,09,33,15.30
2009,06,29,09,34,15.40
2009,06,29,09,35,15.50
2009,06,29,09,36,15.50
2009,06,29,09,37,15.60
2009,06,29,09,38,15.60
2009,06,29,09,39,15.70
2009,06,29,09,40,15.70
2009,06,29,09,41,15.80
2009,06,29,09,42,15.80
2009,06,29,09,43,15.80
2009,06,29,09,44,15.80
2009,06,29,09,45,15.80
2009,06,29,09,46,15.90
2009,06,29,09,47,16.00
2009,06,29,09,48,16.10
2009,06,29,09,49,16.10
2009,06,29,09,50,16.10
2009,06,29,09,51,16.20
2009,06,29,09,52,16.30
2009,06,29,09,53,16.40
2009,06,29,09,54,16.40
2009,06,29,09,55,16.40
2009,06,29,09,56,16.40
2009,06,29,09,57,16.40
2009,06,29,09,58,16.40
2009,06,29,09,59,16.30
2009,06,29,10,00,16.30
2009,06,29,10,01,16.40
2009,06,29,10,02,16.40
2009,06,29,10,03,16.30
2009,06,29,10,04,16.30
2009,06,29,10,05,16.30
2009,06,29,10,06,16.30
2009,06,29,10,07,16.20
2009,06,29,10,08,16.20
2009,06,29,10,09,16.20
2009,06,29,10,10,16.30
2009,06,29,10,11,16.40
2009,06,29,10,12,16.40
2009,06,29,10,13,16.40
2009,06,29,10,14,16.50
2009,06,29,10,15,16.60
2009,06,29,10,16,16.70
2009,06,29,10,17,16.70
2009,06,29,10,18,16.60
2009,06,29,10,19,16.60
2009,06,29,10,20,16.60
2009,06,29,10,21,16.60
2009,06,29,10,22,16.60
2009,06,29,10,23,16.60
2009,06,29,10,24,16.60
2009,06,29,10,25,16.60
2009,06,29,10,26,16.70
2009,06,29,10,27,16.70
2009,06,29,10,28,16.70
2009,06,29,10,29,16.60
2009,06,29,10,30,16.50
2009,06,29,10,31,16.40
2009,06,29,10,32,16.40
2009,06,29,10,33,16.50
2009,06,29,10,34,16.60
2009,06,29,10,35,16.60
2009,06,29,10,36,16.70
2009,06,29,10,37,16.60
2009,06,29,10,38,16.60
2009,06,29,10,39,16.40
2009,06,29,10,40,16.50
2009,06,29,10,41,16.50
2009,06,29,10,42,16.40
2009,06,29,10,43,16.40
2009,06,29,10,44,16.50
2009,06,29,10,45,16.60
2009,06,29,10,46,16.80
2009,06,29,10,47,16.90
2009,06,29,10,48,16.90
2009,06,29,10,49,16.80
2009,06,29,10,50,16.80
2009,06,29,10,51,16.80
2009,06,29,10,52,16.70
2009,06,29,10,53,16.70
2009,06,29,10,54,16.70
2009,06,29,10,55,16.70
2009,06,29,10,56,16.70
2009,06,29,10,57,16.70
2009,06,29,10,58,16.80
2009,06,29,10,59,16.90
2009,06,29,11,00,17.00
2009,06,29,11,01,17.00
2009,06,29,11,02,17.00
2009,06,29,11,03,17.00
2009,06,29,11,04,17.10
2009,06,29,11,05,17.20
2009,06,29,11,06,17.30
2009,06,29,11,07,17.30
2009,06,29,11,08,17.30
2009,06,29,11,09,17.20
2009,06,29,11,10,17.30
2009,06,29,11,11,17.30
2009,06,29,11,12,17.30
2009,06,29,11,13,17.30
2009,06,29,11,14,17.30
2009,06,29,11,15,17.20
2009,06,29,11,16,17.00
2009,06,29,11,17,17.00
2009,06,29,11,18,16.90
2009,06,29,11,19,16.90
2009,06,29,11,20,17.00
2009,06,29,11,21,17.00
2009,06,29,11,22,17.00
2009,06,29,11,23,16.90
2009,06,29,11,24,16.90
2009,06,29,11,25,16.80
2009,06,29,11,26,16.80
2009,06,29,11,27,16.80
2009,06,29,11,28,16.80
2009,06,29,11,29,16.90
2009,06,29,11,30,16.90
2009,06,29,11,31,16.90
2009,06,29,11,32,16.90
2009,06,29,11,33,16.90
2009,06,29,11,34,16.80
2009,06,29,11,35,16.90
2009,06,29,11,36,17.00
2009,06,29,11,37,16.90
2009,06,29,11,38,16.90
2009,06,29,11,39,16.90
2009,06,29,11,40,17.00
2009,06,29,11,41,17.00
2009,06,29,11,42,17.10
2009,06,29,11,43,17.30
2009,06,29,11,44,17.40
2009,06,29,11,45,17.70
2009,06,29,11,46,17.80
2009,06,29,11,47,17.90
2009,06,29,11,48,17.80
2009,06,29,11,49,17.80
2009,06,29,11,50,17.70
2009,06,29,11,51,17.80
2009,06,29,11,52,17.90
2009,06,29,11,53,17.80
2009,06,29,11,54,17.60
2009,06,29,11,55,17.50
2009,06,29,11,56,17.50
2009,06,29,11,57,17.70
2009,06,29,11,58,17.90
2009,06,29,11,59,17.80
2009,06,29,12,00,17.70
2009,06,29,12,01,17.70
2009,06,29,12,02,17.70
2009,06,29,12,03,17.90
2009,06,29,12,04,17.90
2009,06,29,12,05,17.80
2009,06,29,12,06,17.70
2009,06,29,12,07,17.70
2009,06,29,12,08,17.80
2009,06,29,12,09,18.00
2009,06,29,12,10,18.20
2009,06,29,12,11,18.30
2009,06,29,12,12,18.50
2009,06,29,12,13,18.60
2009,06,29,12,14,18.80
2009,06,29,12,15,18.80
2009,06,29,12,16,18.90
2009,06,29,12,17,18.80
2009,06,29,12,18,18.60
2009,06,29,12,19,18.50
2009,06,29,12,20,18.40
2009,06,29,12,21,18.40
2009,06,29,12,22,18.40
2009,06,29,12,23,18.40
2009,06,29,12,24,18.30
2009,06,29,12,25,18.50
2009,06,29,12,26,18.50
2009,06,29,12,27,18.50
2009,06,29,12,28,18.50
2009,06,29,12,29,18.50
2009,06,29,12,30,18.60
2009,06,29,12,31,18.60
2009,06,29,12,32,18.70
2009,06,29,12,33,18.70
2009,06,29,12,34,18.70
2009,06,29,12,35,18.70
2009,06,29,12,36,18.70
2009,06,29,12,37,18.70
2009,06,29,12,38,18.60
2009,06,29,12,39,18.50
2009,06,29,12,40,18.40
2009,06,29,12,41,18.30
2009,06,29,12,42,18.30
2009,06,29,12,43,18.20
2009,06,29,12,44,18.20
2009,06,29,12,45,18.20
2009,06,29,12,46,18.20
2009,06,29,12,47,18.20
2009,06,29,12,48,18.20
2009,06,29,12,49,18.20
2009,06,29,12,50,18.30
2009,06,29,12,51,18.30
2009,06,29,12,52,18.40
2009,06,29,12,53,18.40
2009,06,29,12,54,18.40
2009,06,29,12,55,18.30
2009,06,29,12,56,18.10
2009,06,29,12,57,17.90
2009,06,29,12,58,18.00
2009,06,29,12,59,17.90
2009,06,29,13,00,17.90
2009,06,29,13,01,18.00
2009,06,29,13,02,18.20
2009,06,29,13,03,18.30
2009,06,29,13,04,18.40
2009,06,29,13,05,18.30
2009,06,29,13,06,18.30
2009,06,29,13,07,18.20
2009,06,29,13,08,18.00
2009,06,29,13,09,17.80
2009,06,29,13,10,17.90
2009,06,29,13,11,17.90
2009,06,29,13,12,17.90
2009,06,29,13,13,18.10
2009,06,29,13,14,18.20
2009,06,29,13,15,18.20
2009,06,29,13,16,18.30
2009,06,29,13,17,18.30
2009,06,29,13,18,18.30
2009,06,29,13,19,18.40
2009,06,29,13,20,18.40
2009,06,29,13,21,18.30
2009,06,29,13,22,18.20
2009,06,29,13,23,18.20
2009,06,29,13,24,18.20
2009,06,29,13,25,18.10
2009,06,29,13,26,18.10
2009,06,29,13,27,18.20
2009,06,29,13,28,18.20
2009,06,29,13,29,18.10
2009,06,29,13,30,18.00
2009,06,29,13,31,18.10
2009,06,29,13,32,18.10
2009,06,29,13,33,18.20
2009,06,29,13,34,18.30
2009,06,29,13,35,18.50
2009,06,29,13,36,18.70
2009,06,29,13,37,18.90
2009,06,29,13,38,19.00
2009,06,29,13,39,19.10
2009,06,29,13,40,18.90
2009,06,29,13,41,18.80
2009,06,29,13,42,18.60
2009,06,29,13,43,18.60
2009,06,29,13,44,18.40
2009,06,29,13,45,18.30
2009,06,29,13,46,18.20
2009,06,29,13,47,18.20
2009,06,29,13,48,18.30
2009,06,29,13,49,18.50
2009,06,29,13,50,18.70
2009,06,29,13,51,18.80
2009,06,29,13,52,18.90
2009,06,29,13,53,18.70
2009,06,29,13,54,18.70
2009,06,29,13,55,18.60
2009,06,29,13,56,18.60
2009,06,29,13,57,18.60
2009,06,29,13,58,18.40
2009,06,29,13,59,18.30
2009,06,29,14,00,18.20
2009,06,29,14,01,18.20
2009,06,29,14,02,18.20
2009,06,29,14,03,18.20
2009,06,29,14,04,18.30
2009,06,29,14,05,18.40
2009,06,29,14,06,18.40
2009,06,29,14,07,18.40
2009,06,29,14,08,18.50
2009,06,29,14,09,18.50
2009,06,29,14,10,18.60
2009,06,29,14,11,18.60
2009,06,29,14,12,18.60
2009,06,29,14,13,18.50
2009,06,29,14,14,18.50
2009,06,29,14,15,18.40
2009,06,29,14,16,18.40
2009,06,29,14,17,18.40
2009,06,29,14,18,18.40
2009,06,29,14,19,18.50
2009,06,29,14,20,18.50
2009,06,29,14,21,18.60
2009,06,29,14,22,18.60
2009,06,29,14,23,18.70
2009,06,29,14,24,18.60
2009,06,29,14,25,18.40
2009,06,29,14,26,18.30
2009,06,29,14,27,18.30
2009,06,29,14,28,18.40
2009,06,29,14,29,18.50
2009,06,29,14,30,18.50
2009,06,29,14,31,18.60
2009,06,29,14,32,18.60
2009,06,29,14,33,18.40
2009,06,29,14,34,18.20
2009,06,29,14,35,18.10
2009,06,29,14,36,18.10
2009,06,29,14,37,18.10
2009,06,29,14,38,18.20
2009,06,29,14,39,18.40
2009,06,29,14,40,18.50
2009,06,29,14,41,18.70
2009,06,29,14,42,18.80
2009,06,29,14,43,19.00
2009,06,29,14,44,19.00
2009,06,29,14,45,18.70
2009,06,29,14,46,18.50
2009,06,29,14,47,18.40
2009,06,29,14,48,18.40
2009,06,29,14,49,18.50
2009,06,29,14,50,18.60
2009,06,29,14,51,18.70
2009,06,29,14,52,18.80
2009,06,29,14,53,18.90
2009,06,29,14,54,18.90
2009,06,29,14,55,18.90
2009,06,29,14,56,19.10
2009,06,29,14,57,19.10
2009,06,29,14,58,19.20
2009,06,29,14,59,19.40
2009,06,29,15,00,19.40
2009,06,29,15,01,19.50
2009,06,29,15,02,19.60
2009,06,29,15,03,19.60
2009,06,29,15,04,19.60
2009,06,29,15,05,19.60
2009,06,29,15,06,19.50
2009,06,29,15,07,19.40
2009,06,29,15,08,19.30
2009,06,29,15,09,19.30
2009,06,29,15,10,19.10
2009,06,29,15,11,18.90
2009,06,29,15,12,18.90
2009,06,29,15,13,18.60
2009,06,29,15,14,18.40
2009,06,29,15,15,18.30
2009,06,29,15,16,18.40
2009,06,29,15,17,18.50
2009,06,29,15,18,18.60
2009,06,29,15,19,18.80
2009,06,29,15,20,18.80
2009,06,29,15,21,18.90
2009,06,29,15,22,18.90
2009,06,29,15,23,18.90
2009,06,29,15,24,18.80
2009,06,29,15,25,18.80
2009,06,29,15,26,18.70
2009,06,29,15,27,18.80
2009,06,29,15,28,18.80
2009,06,29,15,29,18.70
2009,06,29,15,30,18.70
2009,06,29,15,31,18.90
2009,06,29,15,32,18.90
2009,06,29,15,33,18.90
2009,06,29,15,34,18.90
2009,06,29,15,35,18.90
2009,06,29,15,36,18.90
2009,06,29,15,37,18.80
2009,06,29,15,38,18.60
2009,06,29,15,39,18.50
2009,06,29,15,40,18.50
2009,06,29,15,41,18.50
2009,06,29,15,42,18.50
2009,06,29,15,43,18.60
2009,06,29,15,44,18.60
2009,06,29,15,45,18.70
2009,06,29,15,46,18.70
2009,06,29,15,47,18.60
2009,06,29,15,48,18.70
2009,06,29,15,49,18.60
2009,06,29,15,50,18.60
2009,06,29,15,51,18.50
2009,06,29,15,52,18.30
2009,06,29,15,53,18.20
2009,06,29,15,54,18.00
2009,06,29,15,55,17.90
2009,06,29,15,56,17.90
2009,06,29,15,57,18.00
2009,06,29,15,58,18.10
2009,06,29,15,59,18.30
2009,06,29,16,00,18.40
2009,06,29,16,01,18.60
2009,06,29,16,02,18.70
2009,06,29,16,03,18.60
2009,06,29,16,04,18.60
2009,06,29,16,05,18.40
2009,06,29,16,06,18.20
2009,06,29,16,07,18.20
2009,06,29,16,08,18.20
2009,06,29,16,09,18.40
2009,06,29,16,10,18.50
2009,06,29,16,11,18.60
2009,06,29,16,12,18.70
2009,06,29,16,13,18.80
2009,06,29,16,14,18.70
2009,06,29,16,15,18.60
2009,06,29,16,16,18.70
2009,06,29,16,17,18.80
2009,06,29,16,18,18.90
2009,06,29,16,19,18.90
2009,06,29,16,20,19.00
2009,06,29,16,21,19.10
2009,06,29,16,22,19.10
2009,06,29,16,23,19.00
2009,06,29,16,24,18.90
2009,06,29,16,25,19.00
2009,06,29,16,26,19.20
2009,06,29,16,27,19.20
2009,06,29,16,28,19.10
2009,06,29,16,29,19.00
2009,06,29,16,30,18.80
2009,06,29,16,31,18.50
2009,06,29,16,32,18.40
2009,06,29,16,33,18.20
2009,06,29,16,34,18.10
2009,06,29,16,35,18.00
2009,06,29,16,36,17.90
2009,06,29,16,37,17.90
2009,06,29,16,38,18.00
2009,06,29,16,39,18.10
2009,06,29,16,40,18.30
2009,06,29,16,41,18.30
2009,06,29,16,42,18.40
2009,06,29,16,43,18.50
2009,06,29,16,44,18.60
2009,06,29,16,45,18.60
2009,06,29,16,46,18.80
2009,06,29,16,47,18.70
2009,06,29,16,48,18.70
2009,06,29,16,49,18.90
2009,06,29,16,50,19.00
2009,06,29,16,51,19.20
2009,06,29,16,52,19.40
2009,06,29,16,53,19.50
2009,06,29,16,54,19.60
2009,06,29,16,55,19.80
2009,06,29,16,56,19.80
2009,06,29,16,57,19.70
2009,06,29,16,58,19.50
2009,06,29,16,59,19.40
2009,06,29,17,00,19.30
2009,06,29,17,01,19.30
2009,06,29,17,02,19.50
2009,06,29,17,03,19.50
2009,06,29,17,04,19.40
2009,06,29,17,05,19.40
2009,06,29,17,06,19.30
2009,06,29,17,07,19.10
2009,06,29,17,08,19.00
2009,06,29,17,09,19.10
2009,06,29,17,10,19.00
2009,06,29,17,11,19.00
2009,06,29,17,12,19.10
2009,06,29,17,13,19.10
2009,06,29,17,14,19.10
2009,06,29,17,15,19.10
2009,06,29,17,16,19.20
2009,06,29,17,17,19.30
2009,06,29,17,18,19.50
2009,06,29,17,19,19.60
2009,06,29,17,20,19.70
2009,06,29,17,21,19.90
2009,06,29,17,22,20.00
2009,06,29,17,23,20.10
2009,06,29,17,24,20.30
2009,06,29,17,25,20.50
2009,06,29,17,26,20.60
2009,06,29,17,27,20.70